Regional Weather Roundup
Issued by NWS State College, PA

Home | Current Version | Previous Version | Text Only | Print | Product List | Glossary On
Versions: 1 2 3 4 5 6 7 8 9 10 11 12 13 14 15 16 17 18 19 20 21 22 23 24 25 26 27 28 29 30 31 32 33 34 35 36 37 38 39 40 41 42 43 44 45 46 47 48 49 50
000
ASUS41 KCTP 291003
RWRCTP

REGIONAL WEATHER ROUNDUP
NATIONAL WEATHER SERVICE STATE COLLEGE PA
600 AM EDT SUN MAY 29 2016

Note: "fair" indicates few or no clouds below 12,000 feet with no
significant weather and/or obstructions to visibility.

* = STATION THAT DOES NOT REPORT PRECIPITATION /E.G. RAIN...SNOW...ETC/
    THUNDER OR FOG.

PAZ002>004-007>009-013>016-020>023-029>032-291100-
WESTERN PENNSYLVANIA

CITY           SKY/WX    TMP DP  RH WIND       PRES   REMARKS
ERIE           PTCLDY    70  64  81 S6        30.09R
MEADVILLE      CLOUDY    66  64  93 S3        30.13R
FRANKLIN*      CLOUDY    63  59  88 SW3       30.16S
NEW CASTLE     FOG       62  61  96 CALM      30.13R VSB 1/4
BEAVER COUNTY  NOT AVBL
BUTLER*        MOCLDY   N/A N/A N/A CALM      30.15R
PITTSBURGH INT CLOUDY    69  64  84 CALM      30.12R
PITTSBURGH     CLOUDY    69  63  81 CALM      30.11S
INDIANA*       PTCLDY    64  64 100 CALM      30.17R
LATROBE        CLOUDY    64  64 100 CALM      30.14R FOG
WASHINGTON CO* CLOUDY    63  61  94 CALM      30.13R
$$

PAZ004>006-010>012-017>019-024>028-033>037-041-042-045-046-049>053-291100-
CENTRAL PENNSYLVANIA

CITY           SKY/WX    TMP DP  RH WIND       PRES   REMARKS
BRADFORD       FOG       60  59  96 CALM      30.16S VSB 1/4
DUBOIS         FOG       66  64  93 E5        30.14S VSB 1
CLEARFIELD     MOCLDY    64  61  90 NE5       30.15S FOG
JOHNSTOWN      PTCLDY    66  58  75 SE3       30.16S
ALTOONA        CLOUDY    65  61  87 NW3       30.15S
STATE COLLEGE  MOCLDY    66  64  93 CALM      30.13S
WILLIAMSPORT   CLEAR     66  63  90 CALM      30.11R FOG
SELINSGROVE    PTCLDY    67  64  90 CALM      30.13R FOG
FT INDIANTOWN  FOG       63  63  99 N2        30.14R VSB 1
CAPITAL CITY   CLEAR     66  61  84 CALM      30.13R
HARRISBURG     PTCLDY    70  61  73 S7        30.12S
YORK           PTCLDY    63  59  87 SE5       30.14R
$$

PAZ038>040-043-044-047-048-054-055-060>062-067>071-291100-
EASTERN PENNSYLVANIA

CITY           SKY/WX    TMP DP  RH WIND       PRES   REMARKS
SCRANTON       CLEAR     68  64  87 E5        30.14R
MOUNT POCONO   CLEAR     62  60  93 NW5       30.18S FOG
ALLENTOWN      CLEAR     68  61  78 CALM      30.14R
QUAKERTOWN*    SUNNY     63  57  82 CALM      30.16S
READING        CLEAR     68  57  68 CALM      30.13R
LANCASTER      PTCLDY    63  58  83 CALM      30.15R
COATESVILLE    SUNNY     63  61  94 CALM      30.17S
POTTSTOWN      CLEAR     64  58  80 CALM      30.17R
BLUE BELL      CLEAR     61  59  94 CALM      30.15R
DOYLESTOWN     CLEAR     64  57  78 S3        30.15R
WILLOW GROVE   NOT AVBL
NORTH PHILA    CLEAR     67  58  72 CALM      30.17R
PHILADELPHIA   MOCLDY    66  57  72 CALM      30.16R
$$



USA.gov is the U.S. government's official web portal to all federal, state and local government web resources and services.